Vertical_Velocity
1 3 0 4 -5 23 7 0 3 -5 -7 8 -1 -4 -7 -7 43 23 -0 5 3 0 -6 -1 -0 -1 0 -0 -0 -1 1 0 -1 -0 -1 -2 -1 -1 -2 -5 -0 -2 -1
-1 1 4 3 17 14 7 10 5 -3 -6 -1 5 -1 -4 6 -4 20 -2 2 8 2 1 -4 -0 -1 1 0 -0 -2 -1 1 -0 -0 -2 0 -2 -0 -1 -0 -1 -1 2
-5 0 -3 -7 -5 18 -5 26 1 5 5 -7 4 -2 4 12 12 -110 19 0 -4 6 2 -3 -1 -1 2 0 -1 -0 -0 -0 1 -0 -0 0 -1 -1 -0 -0 -1 -1 -0
-1 -1 2 -0 10 -15 16 5 -6 -5 4 10 -6 2 1 14 26 21 14 24 5 0 6 -0 -4 -0 1 1 0 -1 -0 -0 1 -0 -1 -0 -3 1 1 -1 -1 -1 -0
-1 -0 2 4 -10 -3 8 17 30 -1 2 7 5 -0 -15 13 5 18 -78 -8 5 5 -1 -3 -3 1 2 2 3 -1 -0 -1 -0 2 0 -1 -2 -1 -3 -2 -1 -0 0
-4 -1 -1 1 3 4 11 6 -0 -3 -6 5 41 30 -9 10 -5 -1 21 -6 13 7 4 -2 -2 -5 -0 0 3 0 -1 -1 -1 2 -3 -2 -1 -2 -2 -3 -1 -0 -1
-5 -4 -0 -2 -2 3 2 1 15 0 -34 -20 0 21 13 26 8 18 15 -5 7 2 2 -1 -3 -3 -3 -1 2 1 -0 -2 -2 -0 -2 -2 -1 -2 -2 -2 -3 -2 -2
-0 -3 -3 -2 -3 -4 -1 7 10 -1 -2 -7 -6 6 5 22 -38 12 14 8 -1 -6 7 -0 -0 -0 -4 -1 -4 2 -1 -2 -2 -2 1 -2 -1 -3 -2 -2 -2 -2 -2
0 -2 1 -2 -1 -4 -2 6 10 2 -1 -2 4 4 -2 -3 25 11 -6 -2 18 5 3 3 1 -0 -2 -0 -0 -0 0 1 -2 -2 -0 -2 -3 -1 -1 -2 -2 -1 -1
1 3 -2 2 -1 1 -2 -2 5 6 3 -4 -1 2 -2 13 1 7 9 -63 19 6 1 5 -1 -2 1 0 1 -0 0 -1 -1 -2 -1 -1 -2 -2 -0 -2 -1 -1 -0
1 -1 0 -1 -1 -2 -0 -2 -3 2 7 -3 5 6 22 21 21 2 3 6 16 1 -2 8 1 -2 0 1 -4 -1 -0 2 0 -2 -1 0 -4 -3 -1 -2 -2 -2 -1
-6 -4 -3 1 -1 -0 -2 -1 -2 -3 7 11 1 -4 -21 -3 -10 13 4 -1 -20 -6 6 2 5 -1 3 3 -6 -2 -1 1 2 -0 -2 1 -1 -2 -0 -1 -2 -2 -2
1 -8 -6 -5 1 -2 2 -2 -1 -2 -1 3 -4 5 2 -19 41 27 10 7 -3 12 -7 -2 -2 -3 1 9 -3 2 -1 -1 0 -1 -2 -2 -0 -1 -1 -1 -3 -2 -1
1 3 -5 -1 3 -1 -2 0 -1 -1 -2 1 2 12 7 7 -1 88 23 15 6 5 -1 -28 -1 -3 -1 3 -8 -1 -0 1 0 -1 -1 -0 -1 -1 -0 -1 -1 -1 0
-0 0 -1 -4 -1 2 -2 -1 -2 -1 1 -1 -1 -0 5 -3 -9 36 2 10 13 -1 -5 -5 -12 -10 -10 5 3 -6 -1 -2 1 -1 -1 -1 0 -0 -0 -1 -2 -2 -2
-2 -1 -1 1 -5 1 -1 -2 -2 0 0 3 -0 2 4 11 -11 9 -13 12 -7 20 -2 9 -9 -7 2 -7 6 6 -6 2 -2 -2 -2 -1 1 0 -1 -1 1 -0 -1
1 6 1 -2 -1 -3 -0 -2 1 -1 -1 1 1 4 0 3 3 -16 5 2 -5 8 4 7 0 4 3 4 -6 3 6 -1 -3 -2 -2 -2 -1 -1 -1 0 -1 -1 1
0 3 0 4 0 -1 -4 -1 -4 1 -2 -4 2 3 1 5 -4 9 -10 -13 -27 11 -4 4 4 17 4 -6 2 -5 -10 3 -6 0 0 -1 1 2 0 0 -1 -1 0
0 -1 1 4 -3 0 -4 -3 0 -3 2 3 -2 -6 0 0 7 20 7 2 1 -15 -8 -9 3 2 16 19 6 12 3 1 -2 2 3 3 2 0 1 1 -2 -3 -1
1 -1 3 4 -0 2 -1 -5 -2 -1 -2 0 2 -0 3 0 -20 4 14 -24 -0 -4 1 1 -12 -1 3 21 10 2 3 7 -2 -2 -4 -1 3 5 6 3 5 6 -1
-2 0 -2 -0 3 2 -3 -3 -2 -0 -1 -4 3 -0 -6 0 8 -1 6 3 14 12 9 -2 -23 7 -8 14 1 -6 6 -3 -4 3 -3 -1 -3 -3 -8 -5 -1 -1 -2
-3 1 -5 -1 -1 -0 2 1 4 3 -3 -3 -4 -1 6 -9 -5 7 4 0 4 2 0 3 -10 -17 -21 2 16 2 -4 7 4 3 -1 -8 -3 -8 -1 -5 -7 -5 -1
-2 2 1 -2 -0 4 -3 0 1 2 2 -2 -4 -1 -1 -1 5 1 -3 4 3 0 9 3 4 -5 -14 -13 6 14 9 -0 -8 -8 3 -2 -4 -13 -0 -3 1 4 1
-1 2 -1 1 1 4 1 -3 -3 -1 6 2 -1 -4 -2 -1 -1 -4 6 -1 4 1 -3 3 4 5 13 12 14 18 11 0 6 16 5 -17 6 -15 3 -1 1 2 3
-0 1 -1 3 -3 -1 0 1 -4 -4 5 -2 -1 -1 1 -1 -3 -3 0 -4 2 -4 2 2 -4 3 1 -3 0 5 6 12 -1 -4 10 -1 -5 -9 -5 -5 -1 2 3
2 -0 -2 3 5 -1 1 1 -0 -5 0 -0 -1 0 -2 2 1 -2 -2 -3 2 1 -1 -2 -5 -4 2 -7 9 7 9 8 7 3 -5 19 6 3 -2 -6 -9 -4 -0
Height
1505 1506 1508 1510 1512 1517 1518 1521 1523 1527 1532 1535 1537 1538 1538 1538 1541 1545 1546 1550 1552 1556 1561 1566 1569 1572 1576 1579 1582 1585 1588 1590 1593 1595 1597 1600 1602 1605 1606 1608 1609 1609 1609
1504 1502 1502 1503 1499 1505 1516 1518 1517 1521 1526 1531 1532 1532 1534 1540 1543 1543 1550 1552 1552 1555 1557 1563 1567 1570 1573 1576 1580 1583 1586 1589 1592 1594 1597 1599 1601 1604 1605 1607 1608 1609 1609
1502 1500 1498 1499 1502 1494 1508 1512 1510 1520 1521 1526 1530 1527 1528 1538 1541 1535 1548 1550 1551 1553 1556 1558 1564 1568 1571 1574 1577 1581 1584 1587 1590 1593 1595 1598 1600 1603 1604 1606 1606 1607 1608
1502 1499 1498 1498 1497 1494 1500 1506 1509 1515 1517 1521 1525 1522 1521 1530 1539 1541 1540 1545 1547 1550 1553 1554 1560 1565 1569 1571 1575 1578 1582 1585 1588 1591 1594 1596 1599 1601 1603 1604 1604 1606 1608
1500 1496 1494 1494 1495 1495 1494 1495 1498 1508 1512 1514 1518 1515 1512 1518 1527 1532 1533 1543 1544 1547 1546 1549 1556 1562 1566 1568 1571 1575 1579 1582 1586 1589 1592 1594 1597 1599 1600 1602 1603 1605 1607
1500 1494 1491 1490 1491 1491 1489 1489 1490 1501 1505 1506 1497 1509 1507 1507 1517 1525 1531 1536 1540 1539 1542 1545 1551 1557 1562 1565 1568 1571 1575 1579 1583 1586 1590 1592 1594 1596 1598 1600 1602 1605 1607
1502 1496 1491 1489 1487 1484 1484 1487 1490 1495 1498 1501 1504 1499 1503 1500 1516 1524 1524 1527 1531 1532 1536 1542 1546 1551 1556 1560 1564 1567 1570 1574 1579 1583 1586 1589 1592 1593 1596 1598 1599 1602 1605
1504 1499 1492 1488 1485 1482 1481 1483 1485 1488 1492 1494 1499 1504 1495 1501 1494 1518 1515 1519 1524 1529 1534 1537 1541 1545 1550 1555 1558 1562 1565 1569 1574 1578 1583 1586 1588 1590 1592 1595 1597 1600 1603
1505 1500 1494 1489 1485 1481 1479 1479 1479 1479 1484 1489 1491 1494 1492 1484 1502 1501 1504 1516 1524 1525 1530 1531 1536 1540 1545 1549 1553 1557 1560 1564 1568 1573 1578 1582 1584 1586 1589 1591 1594 1598 1601
1505 1500 1494 1489 1485 1481 1478 1474 1472 1475 1481 1484 1487 1486 1487 1494 1491 1501 1509 1515 1519 1518 1525 1526 1530 1534 1540 1544 1548 1552 1555 1559 1563 1568 1572 1577 1580 1582 1585 1588 1591 1595 1598
1504 1500 1494 1487 1483 1479 1476 1473 1470 1470 1472 1475 1477 1479 1479 1477 1487 1491 1498 1506 1509 1510 1517 1521 1524 1529 1535 1538 1542 1546 1550 1555 1557 1562 1567 1572 1575 1578 1581 1585 1588 1592 1595
1501 1497 1492 1487 1482 1477 1473 1469 1466 1465 1465 1465 1467 1472 1472 1473 1476 1485 1489 1492 1498 1504 1508 1514 1518 1523 1530 1534 1537 1540 1546 1549 1552 1556 1561 1566 1570 1574 1577 1581 1584 1588 1591
1500 1495 1491 1485 1480 1475 1470 1466 1461 1458 1458 1458 1460 1464 1470 1471 1466 1478 1482 1483 1487 1494 1500 1505 1511 1517 1523 1528 1532 1534 1539 1544 1547 1551 1556 1560 1565 1568 1572 1576 1580 1584 1587
1500 1495 1490 1485 1480 1473 1466 1462 1457 1453 1451 1450 1452 1454 1457 1461 1461 1453 1470 1473 1478 1483 1489 1493 1502 1510 1517 1522 1526 1530 1533 1537 1541 1545 1549 1554 1559 1563 1567 1572 1576 1579 1583
1499 1494 1488 1483 1478 1472 1466 1459 1453 1448 1445 1445 1444 1446 1448 1451 1454 1446 1458 1465 1471 1475 1480 1486 1492 1498 1506 1515 1518 1522 1526 1531 1535 1539 1544 1548 1553 1558 1562 1566 1570 1574 1578
1497 1493 1487 1482 1477 1470 1464 1457 1450 1445 1440 1439 1439 1440 1442 1445 1448 1448 1450 1460 1468 1473 1474 1482 1484 1488 1495 1504 1512 1515 1518 1524 1529 1533 1537 1542 1547 1552 1556 1560 1564 1568 1572
1496 1491 1486 1480 1476 1470 1462 1455 1449 1442 1436 1431 1431 1431 1434 1437 1442 1443 1449 1455 1467 1465 1468 1476 1480 1485 1488 1494 1502 1509 1512 1516 1521 1525 1530 1535 1540 1545 1550 1554 1558 1562 1566
1495 1490 1485 1479 1474 1468 1461 1453 1446 1441 1435 1429 1425 1425 1427 1430 1434 1440 1443 1449 1455 1456 1462 1468 1473 1478 1482 1487 1493 1497 1504 1507 1511 1517 1522 1527 1532 1538 1543 1547 1552 1556 1560
1493 1489 1483 1478 1472 1467 1460 1454 1447 1440 1434 1428 1424 1421 1420 1420 1424 1430 1435 1439 1444 1448 1461 1461 1464 1470 1477 1480 1484 1490 1495 1500 1503 1509 1515 1520 1526 1530 1535 1540 1544 1549 1553
1493 1487 1482 1477 1472 1466 1460 1454 1448 1441 1434 1427 1421 1418 1416 1416 1418 1418 1424 1435 1443 1445 1445 1451 1456 1463 1469 1473 1478 1481 1487 1493 1497 1501 1506 1511 1516 1521 1526 1531 1536 1540 1544
1493 1488 1483 1477 1471 1465 1460 1453 1447 1442 1435 1429 1423 1420 1418 1417 1416 1417 1422 1428 1434 1438 1441 1442 1451 1455 1462 1468 1470 1475 1479 1484 1488 1493 1497 1501 1506 1511 1515 1520 1524 1529 1534
1493 1489 1484 1478 1472 1466 1459 1453 1447 1442 1437 1431 1424 1420 1417 1416 1415 1415 1417 1422 1426 1430 1434 1436 1435 1444 1454 1460 1466 1467 1472 1476 1480 1485 1491 1494 1498 1500 1505 1508 1513 1517 1522
1494 1489 1485 1480 1474 1468 1461 1451 1445 1440 1436 1432 1426 1420 1414 1412 1408 1407 1410 1414 1418 1424 1428 1433 1439 1445 1445 1450 1459 1462 1464 1468 1472 1478 1484 1485 1488 1491 1495 1499 1503 1508 1512
1493 1489 1485 1481 1475 1468 1462 1452 1445 1439 1435 1432 1429 1424 1418 1412 1407 1403 1403 1406 1411 1417 1423 1427 1432 1437 1438 1444 1450 1453 1458 1462 1467 1470 1474 1476 1479 1480 1487 1489 1493 1498 1502
1494 1489 1485 1481 1475 1469 1461 1454 1447 1441 1435 1432 1430 1427 1422 1417 1411 1407 1403 1403 1404 1409 1412 1416 1421 1426 1430 1434 1439 1444 1446 1452 1456 1460 1464 1466 1469 1473 1476 1479 1483 1488 1493
1494 1490 1485 1481 1476 1469 1463 1455 1449 1443 1437 1434 1431 1427 1424 1420 1415 1409 1403 1400 1400 1400 1401 1408 1412 1417 1422 1427 1433 1435 1439 1442 1446 1450 1456 1460 1463 1465 1467 1470 1475 1478 1482